Location: Asheville, NC
(35.6000°N, 82.5500°W)
Time: 12:04:56

PCSat - Pass Details

Date: 16 March 2018
Orbit: 785 x 795 km, 67.0° (Epoch: 24 March)

Event Time Altitude Azimuth Distance (km) Brightness Sun altitude
Rises 06:58:20 0° 343° (NNW) 3,298 12.6 -9.2°
Reaches altitude 10° 07:01:00 10° 353° (N) 2,365 12.0 -8.7°
Maximum altitude 07:05:50 32° 56° (NE) 1,333 11.5 -7.7°
Drops below altitude 10° 07:10:39 10° 119° (ESE) 2,351 13.1 -6.7°
Sets 07:13:17 0° 129° (SE) 3,276 13.6 -6.2°
